Location: Newark
(13.6797°N, 8.5297°E)
Time: 01:48:53
(UTC+00:00)

SR - Pass Details

Date: 02 February 2020
Orbit: 575 x 880 km, 66.7° (Epoch: 26 February)

Event Time Altitude Azimuth Distance (km) Brightness Sun altitude
Rises 18:56:55 0° 216° (SW) 3,281 ? -22.1°
Reaches altitude 10° 18:59:23 10° 223° (SW) 2,394 ? -22.7°
Maximum altitude 19:04:37 41° 293° (WNW) 1,201 ? -23.9°
Enters shadow 19:09:53 11° 2° (N) 2,437 ? -25.2°
Drops below altitude 10° 19:10:07 10° 3° (N) 2,515 - -25.2°
Sets 19:12:47 0° 10° (N) 3,465 - -25.9°
